Location: Bo?a Wola
(50.4192°N, 19.7966°E)
Time: 02:14:59
(UTC+00:00)

GEOS 3 Rocket - Pass Details

Date: 25 September 2024
Orbit: 790 x 825 km, 115.0° (Epoch: 14 October)

Event Time Altitude Azimuth Distance (km) Brightness Sun altitude
Exits shadow 20:59:31 16° 277° (W) 1,984 5.9 -37.1°
Drops below altitude 10° 21:01:09 10° 293° (WNW) 2,389 6.5 -37.2°
Sets 21:04:01 0° 309° (NW) 3,318 7.6 -37.4°
